weather.gov     
National Weather Service

Regional Weather Roundup
NWS Homepage
This page is being discontinued on March 12, 2014.
The same data is available at this site. Please update your bookmarks.
Thank you, and we apologize for the inconvenience.
Please send an email to SR-SRH.Webmaster@noaa.gov with any concerns.


Current Version
Previous Version:    01  02  03  04  05  06  07  08  09  10  11  12  13  14  15  16  17  18  19  20  21  22  23  24  25  26  
[Printable]
952
ASUS45 KBOU 231106
RWRCO

WEATHER ROUNDUP FOR COLORADO
NATIONAL WEATHER SERVICE DENVER/BOULDER CO
500 AM MDT WED APR 23 2014

NOTE: "FAIR" INDICATES FEW OR NO CLOUDS BELOW 12000 FEET WITH NO
SIGNIFICANT WEATHER AND/OR OBSTRUCTIONS TO VISIBILITY.

COZ001>005-013-030-031-231200-
...NORTHWEST COLORADO...

CITY           SKY/WX    TMP DP  RH WIND       PRES   REMARKS
CRAIG          LGT RAIN  37  34  89 VRB3      29.83R
HAYDEN         CLOUDY    37  32  81 NW18G28   29.83R
MEEKER         CLOUDY    43  35  73 E7        29.80F
MOUNT WERNER   CLOUDY    32  32 100 SW16G22   29.86S VSB 1/4 WCI  21
STEAMBOAT SPGS CLOUDY    41  39  91 SW5       29.78R
WALDEN         CLOUDY    37  32  81 SW10      29.74R
$$

COZ006>008-011-231200-
...WEST CENTRAL VALLEYS...

CITY           SKY/WX    TMP DP  RH WIND       PRES   REMARKS
GRAND JUNCTION MOCLDY    56  24  29 W13       29.72R
MONTROSE       MOCLDY    59  28  30 SW13G24   29.78R
EAGLE          MOCLDY    55  27  33 SW12      29.72R
RIFLE          LGT RAIN  50  33  52 NW21G30   29.74R
DELTA          NOT AVBL
NUCLA          NOT AVBL
$$

COZ017>023-064>068-231200-
...SOUTHWEST COLORADO...

CITY           SKY/WX    TMP DP  RH WIND       PRES   REMARKS
DURANGO        MOCLDY    52  24  33 SW14G22   29.85S
CORTEZ         CLOUDY    55  27  34 S10       29.83R
PAGOSA SPRINGS MOCLDY    49  24  37 W5        29.89S
TELLURIDE      CLOUDY    45  27  49 SW17G26   29.91S
WOLF CREEK PAS CLOUDY    30  23  74 SW25G40   30.02F WCI  16
$$

COZ009-010-012-014-032>034-037-058>063-231200-
...CENTRAL COLORADO...

CITY           SKY/WX    TMP DP  RH WIND       PRES   REMARKS
ASPEN          LGT RAIN  47  30  51 CALM      29.79R
BUENA VISTA    CLOUDY    47  25  40 SE12G18   29.78F
COPPER MTN     MOCLDY    36  14  41 SW9G22    29.93F
BERTHOUD PASS  FAIR      30  21  69 W23G30    29.92F WCI  17
COTTONWOOD PAS CLOUDY    45  19  36 NW5       29.86F
GUNNISON       CLOUDY    39  28  65 N3        29.85S
KREMMLING      MOCLDY    54  19  26 SW18G26   29.72R
LEADVILLE      CLOUDY    41  15  35 S24G31    29.83S
MONARCH PASS   MOCLDY    32  14  47 SW41G55   30.02F WCI  16
SALIDA         CLOUDY    52  24  34 S6        29.85F
SUNLIGHT       CLOUDY    37  28  70 CALM      29.87R
WILKERSON PASS PTCLDY    32  21  64 SW10G23   29.89S WCI  24
$$

COZ069>075-231200-
...SAN LUIS VALLEY/SANGRE DE CRISTO MOUNTAINS...

CITY           SKY/WX    TMP DP  RH WIND       PRES   REMARKS
ALAMOSA        PTCLDY    43  27  53 S9        29.83F
LA VETA PASS   MOCLDY    37  27  65 SW20G35   29.88F
SAGUACHE       MOCLDY    37  25  60 N8        29.82F
$$

COZ035-036-038>040-231200-
...NORTHERN COLORADO FRONT RANGE...

CITY           SKY/WX    TMP DP  RH WIND       PRES   REMARKS
DENVER INTL AP MOCLDY    56  30  37 S17       29.58F
DMNS CITY PARK   N/A     58  29  33 SE6G12    29.58S
AURORA         MOCLDY    59  28  31 S15       29.61F
FRONT RANGE AP NOT AVBL
ERIE MUNI ARPT PTCLDY    53  33  47 SW5       29.55F
BOULDER MUN AP PTCLDY    54  32  43 SW6       29.56S
CENTENNIAL     PTCLDY    55  27  34 S9        29.62F
BROOMFIELD     PTCLDY    52  34  50 S8        29.58F
FORT COLLINS   PTCLDY    45  36  70 NW3       29.57S
LONGMONT       NOT AVBL
$$

COZ041-046-047-076>085-087-088-231200-
...PIKES PEAK/PALMER DIVIDE AND SOUTHERN FOOTHILLS...

CITY           SKY/WX    TMP DP  RH WIND       PRES   REMARKS
COLO. SPRINGS  PTCLDY    58  28  32 S25       29.69F
A. F. ACADEMY  PTCLDY    53  28  36 VRB6      29.68F
ELLICOTT       NOT AVBL
FALCON         PTCLDY    51  28  41 S15       29.72F
FORT CARSON    PTCLDY    58  30  34 S17       29.66F
LIMON          CLOUDY    53  37  54 S13       29.67S
MONUMENT HILL  PTCLDY    54  21  28 SW17G26   29.69F
TRINIDAD       PTCLDY    56  38  50 VRB3      29.75F
$$

COZ042>045-048>051-090-091-231200-
...NORTHEAST COLORADO...

CITY           SKY/WX    TMP DP  RH WIND       PRES   REMARKS
GREELEY ARPT   MOCLDY    43  34  70 NE3       29.55F
AKRON          CLOUDY    61  37  41 SW21G30   29.56F
BURLINGTON     CLOUDY    61  41  47 S28G36    29.64F
WRAY           MOCLDY    60  42  50 S17G25    29.56F
STERLING       NOT AVBL
HOLYOKE        NOT AVBL
FORT MORGAN    NOT AVBL
$$

COZ086-089-092>099-231200-
...SOUTHEAST COLORADO...

CITY           SKY/WX    TMP DP  RH WIND       PRES   REMARKS
PUEBLO         MOCLDY    56  37  49 SE5       29.65S
LA JUNTA       MOCLDY    66  42  41 S20G28    29.66S
LAMAR          CLOUDY    64  42  44 S24       29.65S
SPRINGFIELD      N/A     57  39  51 S18       29.75F
$$




U.S. Dept. of Commerce
NOAA National Weather Service
1325 East West Highway
Silver Spring, MD 20910
E-mail: w-nws.webmaster@noaa.gov
Page last modified: May 16, 2007
NATIONAL WEATHER SERVICE: for Safety, for Work, for Fun - FOR LIFE